This is the latest recevied weather packets stored in our database for station/object KB1WCR. If no packets are shown the sender has not sent any weather packets the latest 10 day(s).
| Time | Temp. | Humidity | Pressure | Rain* | Wind** | Luminosity | Snow |
|---|---|---|---|---|---|---|---|
| 1787674245 | 25.56° C | 63% | 1012.6 hPa | 0 mm | - | 784 W/m² | - |
| 1787673945 | 25.56° C | 61% | 1012.5 hPa | 0 mm | - | 779 W/m² | - |
| 1787673640 | 26.11° C | 64% | 1012.6 hPa | 0 mm | - | 784 W/m² | - |
| 1787673339 | 26.11° C | 62% | 1012.7 hPa | 0 mm | - | 288 W/m² | - |
| 1787673034 | 25.56° C | 62% | 1012.6 hPa | 0 mm | - | 825 W/m² | - |
| 1787672729 | 24.44° C | 67% | 1012.7 hPa | 0 mm | - | 862 W/m² | - |
| 1787672425 | 25° C | 66% | 1012.6 hPa | 0 mm | - | 223 W/m² | - |
| 1787672119 | 25° C | 63% | 1012.9 hPa | 0 mm | - | 152 W/m² | - |
| 1787671819 | 25° C | 62% | 1012.8 hPa | 0 mm | - | 753 W/m² | - |
| 1787671514 | 25.56° C | 67% | 1012.8 hPa | 0 mm | - | 711 W/m² | - |
| 1787671209 | 25.56° C | 62% | 1012.9 hPa | 0 mm | - | 692 W/m² | - |
| 1787670904 | 25.56° C | 63% | 1013 hPa | 0 mm | - | 677 W/m² | - |
| 1787670599 | 25° C | 64% | 1013 hPa | 0 mm | - | 672 W/m² | - |
| 1787670299 | 25° C | 69% | 1013 hPa | 0 mm | - | 664 W/m² | - |
| 1787669993 | 25° C | 65% | 1013.2 hPa | 0 mm | - | 658 W/m² | - |
| 1787669689 | 24.44° C | 70% | 1013.1 hPa | 0 mm | - | 648 W/m² | - |
| 1787669383 | 24.44° C | 68% | 1013.3 hPa | 0 mm | - | 639 W/m² | - |
| 1787669079 | 24.44° C | 68% | 1013.3 hPa | 0 mm | - | 632 W/m² | - |
| 1787668775 | 23.89° C | 67% | 1013.3 hPa | 0 mm | - | 624 W/m² | - |
| 1787668471 | 23.33° C | 74% | 1013.1 hPa | 0 mm | - | 613 W/m² | - |
| 1787668165 | 23.33° C | 73% | 1013.4 hPa | 0 mm | - | 606 W/m² | - |
| 1787667855 | 23.33° C | 72% | 1013.3 hPa | 0 mm | - | 595 W/m² | - |
| 1787667550 | 23.89° C | 72% | 1013.3 hPa | 0 mm | - | 583 W/m² | - |
| 1787667247 | 23.33° C | 75% | 1013.3 hPa | 0 mm | - | 573 W/m² | - |
| 1787666946 | 22.78° C | 73% | 1013.3 hPa | 0 mm | - | 562 W/m² | - |
* Rain latest hour (hover to see other rain measurements)
** Current wind speed in m/s (hover to see current wind gust speed)